Weather History for Belen, NM

Change the Weather History Date:

Saturday, September 29, 2012

  Actual Average (KABQ) Record (KABQ)
Temperature  
Mean Temperature 67 °F 64 °F  
Max Temperature 79 °F 76 °F 90 °F (1979)
Min Temperature 55 °F 53 °F 34 °F (1917)
Degree Days  
Heating Degree Days 0 3  
Month to date heating degree days 23  
Since 1 July heating degree days 23  
Cooling Degree Days 2 2  
Month to date cooling degree days 155  
Year to date cooling degree days 1312  
Growing Degree Days 17 (Base 50)    
Moisture  
Dew Point 48 °F    
Average Humidity 57    
Maximum Humidity 93    
Minimum Humidity 24    
Precipitation  
Precipitation 0.00 in 0.03 in 0.86 in (1904)
Month to date precipitation 1.04  
Year to date precipitation 7.32  
Snow  
Snow 0.00 in - - ()
Month to date snowfall  
Since 1 July snowfall  
Since 1 September snowfall  
Snow Depth -    
Sea Level Pressure  
Sea Level Pressure 30.18 in    
Wind  
Wind Speed 7 mph (South)    
Max Wind Speed 13 mph    
Max Gust Speed 16 mph    
Visibility 10 miles    
Events Rain , Thunderstorm    
T = Trace of Precipitation, MM = Missing Value Source: NWS Daily Summary

Daily Weather History Graph

Daily Weather History Graph

Search for Another Location

Airport:

Trip Planner

Search our weather history database for the weather conditions in past years. The results will help you decide how hot, cold, wet, or windy it might be!

Date:

Astronomy

Sep. 29, 2012 Rise Set
Actual Time 7:00 AM MDT 6:53 PM MDT
Civil Twilight 6:35 AM MDT 7:18 PM MDT
Nautical Twilight 6:06 AM MDT 7:47 PM MDT
Astronomical Twilight 5:37 AM MDT 8:17 PM MDT
Moon 6:29 PM MDT (9/29) 6:33 AM MDT (9/29)
Length of Visible Light 12h 42m
Length of Day
11h 52m
Full, 100% of the Moon is Illuminated
Sep 29
Full
Sep 29
Full
Oct 8
Last Quarter
Oct 15
New
Oct 21
First Quarter

Hourly Weather History & Observations

Time (MDT) Temp. Dew Point Humidity Pressure Visibility Wind Dir Wind Speed Gust Speed Precip Events Conditions
12:15 AM 60.8 °F 55.4 °F 82% 30.18 in 10.0 mi SSE 12.7 mph - N/A Rain Rain
12:35 AM 61.5 °F 53.8 °F 76% 30.18 in 10.0 mi South 12.7 mph - N/A Rain Light Rain
12:55 AM 60.8 °F 54.5 °F 80% 30.19 in 10.0 mi South 10.4 mph - N/A   Scattered Clouds
1:15 AM 61.2 °F 54.3 °F 78% 30.18 in 10.0 mi SSE 10.4 mph - N/A   Mostly Cloudy
1:35 AM 60.1 °F 54.9 °F 83% 30.19 in 10.0 mi South 9.2 mph - N/A   Scattered Clouds
1:55 AM 59.5 °F 54.5 °F 83% 30.19 in 10.0 mi South 5.8 mph - N/A   Mostly Cloudy
2:15 AM 59.4 °F 54.5 °F 84% 30.21 in 10.0 mi SW 9.2 mph - N/A   Mostly Cloudy
2:55 AM 59.5 °F 54.0 °F 82% 30.21 in 10.0 mi SW 6.9 mph - N/A   Mostly Cloudy
3:15 AM 59.5 °F 53.6 °F 81% 30.20 in 10.0 mi South 8.1 mph - N/A   Scattered Clouds
3:35 AM 59.9 °F 51.8 °F 75% 30.20 in 10.0 mi SSE 12.7 mph 16.1 mph N/A   Clear
3:55 AM 59.7 °F 51.8 °F 75% 30.20 in 10.0 mi SSE 4.6 mph - N/A   Mostly Cloudy
4:15 AM 59.0 °F 52.2 °F 78% 30.19 in 10.0 mi SSW 4.6 mph - N/A   Scattered Clouds
4:35 AM 58.5 °F 52.3 °F 80% 30.19 in 10.0 mi South 4.6 mph - N/A   Clear
5:15 AM 57.7 °F 52.5 °F 83% 30.20 in 10.0 mi SSE 3.5 mph - N/A   Clear
5:35 AM 57.2 °F 52.7 °F 85% 30.21 in 10.0 mi ESE 3.5 mph - N/A   Clear
5:55 AM 56.5 °F 53.4 °F 89% 30.21 in 10.0 mi Calm Calm - N/A   Scattered Clouds
6:15 AM 55.4 °F 53.4 °F 93% 30.22 in 10.0 mi NNW 6.9 mph - N/A   Mostly Cloudy
6:35 AM 55.6 °F 52.9 °F 91% 30.22 in 10.0 mi NW 4.6 mph - N/A   Scattered Clouds
6:55 AM 55.0 °F 52.7 °F 92% 30.23 in 10.0 mi North 3.5 mph - N/A   Scattered Clouds
7:15 AM 55.0 °F 52.7 °F 92% 30.23 in 10.0 mi NNW 3.5 mph - N/A   Scattered Clouds
7:35 AM 55.2 °F 52.9 °F 92% 30.24 in 10.0 mi NW 4.6 mph - N/A   Clear
7:55 AM 56.3 °F 52.7 °F 88% 30.25 in 10.0 mi NW 4.6 mph - N/A   Clear
8:15 AM 58.3 °F 52.5 °F 81% 30.25 in 10.0 mi WNW 5.8 mph - N/A   Clear
8:35 AM 59.9 °F 52.7 °F 77% 30.25 in 10.0 mi NW 6.9 mph - N/A   Clear
8:55 AM 60.6 °F 53.2 °F 77% 30.25 in 10.0 mi WNW 5.8 mph - N/A   Clear
9:15 AM 61.5 °F 53.4 °F 75% 30.25 in 10.0 mi NW 4.6 mph - N/A   Clear
9:35 AM 63.0 °F 53.6 °F 71% 30.25 in 10.0 mi NW 4.6 mph - N/A   Clear
9:55 AM 64.4 °F 52.3 °F 65% 30.26 in 10.0 mi North 6.9 mph - N/A   Clear
10:15 AM 65.8 °F 51.1 °F 59% 30.25 in 10.0 mi NNE 8.1 mph - N/A   Clear
10:35 AM 66.2 °F 50.7 °F 57% 30.25 in 10.0 mi North 3.5 mph - N/A   Clear
11:15 AM 66.7 °F 50.7 °F 56% 30.24 in 10.0 mi NNW 4.6 mph - N/A   Overcast
11:35 AM 67.1 °F 50.2 °F 55% 30.23 in 10.0 mi Calm Calm - N/A   Mostly Cloudy
11:55 AM 69.1 °F 50.2 °F 51% 30.23 in 10.0 mi Calm Calm - N/A   Scattered Clouds
12:15 PM 70.3 °F 50.2 °F 49% 30.23 in 10.0 mi NNE 3.5 mph - N/A   Mostly Cloudy
12:35 PM 70.2 °F 50.9 °F 50% 30.22 in 10.0 mi SSE 3.5 mph - N/A   Mostly Cloudy
12:55 PM 71.8 °F 49.5 °F 45% 30.21 in 10.0 mi WNW 5.8 mph - N/A Thunderstorm Mostly Cloudy
1:15 PM 72.5 °F 48.4 °F 42% 30.20 in 10.0 mi NW 3.5 mph - N/A   Scattered Clouds
1:35 PM 74.5 °F 48.0 °F 39% 30.18 in 10.0 mi North 4.6 mph - N/A   Clear
1:55 PM 74.5 °F 47.3 °F 38% 30.17 in 10.0 mi Calm Calm - N/A   Clear
2:15 PM 76.3 °F 46.0 °F 34% 30.16 in 10.0 mi WSW 3.5 mph - N/A   Clear
2:35 PM 76.1 °F 45.3 °F 33% 30.15 in 10.0 mi Calm Calm - N/A   Clear
2:55 PM 77.0 °F 43.7 °F 31% 30.14 in 10.0 mi WNW 3.5 mph - N/A   Clear
3:15 PM 77.4 °F 41.0 °F 27% 30.14 in 10.0 mi North 4.6 mph - N/A Thunderstorm Clear
3:35 PM 78.4 °F 39.4 °F 25% 30.12 in 10.0 mi Calm Calm - N/A   Clear
3:55 PM 79.2 °F 39.0 °F 24% 30.12 in 10.0 mi Calm Calm - N/A   Clear
4:15 PM 77.5 °F 40.8 °F 27% 30.12 in 10.0 mi SE 5.8 mph - N/A   Clear
4:35 PM 76.1 °F 41.7 °F 29% 30.11 in 10.0 mi East 3.5 mph - N/A   Clear
4:55 PM 76.1 °F 41.4 °F 29% 30.11 in 10.0 mi Calm Calm - N/A   Clear
5:15 PM 77.2 °F 41.7 °F 28% 30.11 in 10.0 mi South 5.8 mph - N/A   Mostly Cloudy
5:35 PM 78.1 °F 41.0 °F 27% 30.11 in 10.0 mi SE 5.8 mph - N/A   Scattered Clouds
5:55 PM 78.1 °F 40.6 °F 26% 30.11 in 10.0 mi SSE 6.9 mph - N/A   Clear
6:15 PM 77.0 °F 40.3 °F 27% 30.11 in 10.0 mi SSE 6.9 mph - N/A   Clear
6:35 PM 76.1 °F 40.5 °F 28% 30.12 in 10.0 mi ESE 4.6 mph - N/A   Clear
6:55 PM 73.8 °F 41.9 °F 32% 30.12 in 10.0 mi East 4.6 mph - N/A   Scattered Clouds
7:15 PM 72.7 °F 42.4 °F 34% 30.12 in 10.0 mi SSE 3.5 mph - N/A   Clear
7:35 PM 69.1 °F 43.9 °F 40% 30.12 in 10.0 mi Calm Calm - N/A Thunderstorm Clear
7:55 PM 69.6 °F 42.3 °F 37% 30.12 in 10.0 mi SSE 3.5 mph - N/A   Clear
8:15 PM 69.3 °F 42.8 °F 38% 30.14 in 10.0 mi SSE 3.5 mph - N/A   Clear
8:35 PM 67.6 °F 43.0 °F 41% 30.14 in 10.0 mi SSE 4.6 mph - N/A   Clear
8:55 PM 66.4 °F 43.9 °F 44% 30.15 in 10.0 mi SSE 3.5 mph - N/A   Clear
9:15 PM 65.3 °F 43.3 °F 45% 30.16 in 10.0 mi South 5.8 mph - N/A   Clear
9:35 PM 65.1 °F 41.9 °F 43% 30.17 in 10.0 mi SE 6.9 mph - N/A   Clear
9:55 PM 66.2 °F 42.3 °F 42% 30.18 in 10.0 mi SE 5.8 mph - N/A   Clear
10:15 PM 62.8 °F 44.1 °F 50% 30.18 in 10.0 mi Calm Calm - N/A   Clear
10:35 PM 63.9 °F 44.8 °F 50% 30.18 in 10.0 mi SE 3.5 mph - N/A   Clear
10:55 PM 64.8 °F 44.6 °F 48% 30.18 in 10.0 mi SSE 4.6 mph - N/A   Clear
11:15 PM 60.3 °F 46.4 °F 60% 30.18 in 10.0 mi SW 4.6 mph - N/A   Clear
11:55 PM 59.9 °F 46.6 °F 61% 30.18 in 10.0 mi SSW 4.6 mph - N/A   Clear